Parsons, KS

8:01 PM CDT on June 26, 2017 (GMT -0500)
Tri-City

Weather History for KPPF - March, 2013

Change the Weather History Date:

Wednesday, March 27, 2013

  Actual Average Record
Temperature  
Mean Temperature 46 °F -  
Max Temperature 60 °F 62 °F 85 °F (1956)
Min Temperature 33 °F 40 °F 19 °F (1955)
Degree Days  
Heating Degree Days 18    
Moisture  
Dew Point 26 °F    
Average Humidity 46    
Maximum Humidity 66    
Minimum Humidity 30    
Precipitation  
Precipitation 0.00 in - - ()
Sea Level Pressure  
Sea Level Pressure 30.22 in    
Wind  
Wind Speed 5 mph (SE)    
Max Wind Speed 15 mph    
Max Gust Speed 28 mph    
Visibility 10 miles    
Events      
Averages and records for this station are not official NWS values.
T = Trace of Precipitation, MM = Missing Value Source: NWS Daily Summary

Daily Weather History Graph

Daily Weather History Graph

Search for Another Location

Airport or City:

Trip Planner

Search our weather history database for the weather conditions in past years. The results will help you decide how hot, cold, wet, or windy it might be!

Date:

Astronomy

Mar. 27, 2013 Rise Set
Actual Time 7:14 AM CDT 7:40 PM CDT
Civil Twilight 6:48 AM CDT 8:06 PM CDT
Nautical Twilight 6:17 AM CDT 8:37 PM CDT
Astronomical Twilight 5:46 AM CDT 9:08 PM CDT
Moon 8:23 PM CDT 7:07 AM CDT
Length of Visible Light 13h 18m
Length of Day
12h 25m
Full, 100% of the Moon is Illuminated
Mar 27
Full
Apr 2
Last Quarter
Apr 10
New
Apr 18
First Quarter
Apr 25
Full

Hourly Weather History & Observations

Time (CDT) Temp. Windchill Dew Point Humidity Pressure Visibility Wind Dir Wind Speed Gust Speed Precip Events Conditions
12:52 AM 34.0 °F 31.0 °F 23.0 °F 64% 30.31 in 10.0 mi ESE 3.5 mph - N/A   Clear
1:52 AM 35.1 °F 31.0 °F 21.9 °F 59% 30.29 in 10.0 mi ESE 4.6 mph - N/A   Clear
2:52 AM 35.1 °F 32.2 °F 21.9 °F 59% 30.29 in 10.0 mi ESE 3.5 mph - N/A   Clear
3:52 AM 33.1 °F - 21.9 °F 64% 30.27 in 10.0 mi Calm Calm - N/A   Clear
4:52 AM 34.0 °F - 21.0 °F 59% 30.27 in 10.0 mi Calm Calm - N/A   Clear
5:52 AM 33.1 °F - 23.0 °F 66% 30.27 in 10.0 mi Calm Calm - N/A   Mostly Cloudy
6:52 AM 35.1 °F 31.0 °F 21.9 °F 59% 30.29 in 10.0 mi SE 4.6 mph - N/A   Mostly Cloudy
7:52 AM 36.0 °F 31.1 °F 21.9 °F 57% 30.28 in 10.0 mi SE 5.8 mph - N/A   Mostly Cloudy
8:52 AM 39.9 °F 35.8 °F 23.0 °F 51% 30.30 in 10.0 mi SE 5.8 mph - N/A   Overcast
9:52 AM 45.0 °F 39.7 °F 24.1 °F 44% 30.29 in 10.0 mi SSE 10.4 mph 18.4 mph N/A   Clear
10:52 AM 48.9 °F - 24.1 °F 38% 30.27 in 10.0 mi South 12.7 mph 20.7 mph N/A   Clear
12:52 PM 57.9 °F - 27.0 °F 31% 30.21 in 10.0 mi SSE 15.0 mph 27.6 mph N/A   Clear
1:52 PM 60.1 °F - 28.0 °F 30% 30.17 in 10.0 mi SSE 12.7 mph 24.2 mph N/A   Clear
2:52 PM 59.0 °F - 28.0 °F 31% 30.16 in 10.0 mi South 15.0 mph 23.0 mph N/A   Clear
3:52 PM 57.9 °F - 28.0 °F 32% 30.15 in 10.0 mi South 12.7 mph 20.7 mph N/A   Clear
4:52 PM 59.0 °F - 28.0 °F 31% 30.15 in 10.0 mi SE 6.9 mph - N/A   Partly Cloudy
5:52 PM 60.1 °F - 28.0 °F 30% 30.14 in 10.0 mi SE 9.2 mph - N/A   Scattered Clouds
6:52 PM 57.0 °F - 28.0 °F 33% 30.14 in 10.0 mi Variable 5.8 mph - N/A   Scattered Clouds
7:52 PM 53.1 °F - 28.9 °F 40% 30.15 in 10.0 mi Calm Calm - N/A   Clear
8:52 PM 50.0 °F - 28.9 °F 44% 30.16 in 10.0 mi Variable 3.5 mph - N/A   Clear
9:52 PM 51.1 °F - 28.0 °F 41% 30.17 in 10.0 mi Variable 4.6 mph - N/A   Partly Cloudy
10:52 PM 51.1 °F - 28.0 °F 41% 30.17 in 10.0 mi Calm Calm - N/A   Overcast
11:52 PM 48.0 °F - 30.0 °F 50% 30.17 in 10.0 mi Variable 4.6 mph - N/A   Overcast